リニア彗星

C/1998 U5 ( LINEAR )

English version
Home page
Updated on September 15, 1999

---------------------------------------------------------------------

・ プロフィール

発見日 1998年10月30日
発見光度 14.0等
発見者 Lincoln Laboratory Near-Earth Asteroid Research project

・ 写真集

・ 軌道要素

   The following improved orbital elements by Kenji Muraoka, are 
  from 358 observations 1998 Oct. 30 to 1999 May 24, perturbations
  by 9 Planets, Moon and 5 minor planets were taken into account.
   The mean residual is +/- 0.68 arc seconds.

      Epoch  =  1998 Dec. 13.0  TT       JDT = 2451160.5
          T  =  1998 Dec. 21.76008       +/- 0.00018 (m.e.) TT
       Peri. =   51.13442                +/- 0.00009
       Node  =   66.65075                +/- 0.00011   (2000.0)
       Incl. =  131.76490                +/- 0.00006
          q  =    1.2364519              +/- 0.0000009 AU
          e  =    0.9879752              +/- 0.0000075
        1/a  =   +0.0097253              +/- 0.0000060 1/AU
        ( P  =   1043 years )
  orig. 1/a  =   +0.010054 
  fut.  1/a  =   +0.009752 

・ 星図

・ 光度変化

        m1 = -1.0 + 5 logΔ + 86   log r  [   ,-35]  (              〜1998年11月16日)
        m1 =  8.7 + 5 logΔ + 10.0 log r  [-35, 50]  (1998年11月16日〜1999年 2月 9日)
        m1 = 10.7 + 5 logΔ + 10.0 log r  [ 50,   ]  (1999年 2月 9日〜              )

---------------------------------------------------------------------

軌道要素は村岡健治氏の計算によるものです。
星図は StellaNavigator Ver.2.0 for Windows (アストロアーツ 編著 / アスキー出版局刊) で作成したものです。
光度グラフはComet for Windowsで作成したものです。

---------------------------------------------------------------------

Copyright(C) Seiichi Yoshida (comet@aerith.net). All rights reserved.